Regional Weather Roundup
Issued by NWS

Home | Current Version | Previous Version | Text Only | Print | Product List | Glossary Off
Versions: 1 2 3 4 5 6 7 8 9 10 11 12 13 14 15 16 17 18 19 20 21 22 23 24 25 26 27 28 29 30 31 32 33 34 35 36 37 38 39 40 41 42 43 44 45 46 47 48 49 50

000
ASUS43 KLOT 290703
RWRIL

ILLINOIS REGIONAL WEATHER ROUNDUP
NATIONAL WEATHER SERVICE CHICAGO/ROMEOVILLE IL
200 AM CDT WED MAR 29 2017

NOTE: "FAIR" INDICATES FEW OR NO CLOUDS BELOW 12,000 FEET WITH NO
SIGNIFICANT WEATHER AND/OR OBSTRUCTIONS TO VISIBILITY.

* THESE STATIONS ARE NOT UNDER NWS QUALITY CONTROL. THEY ALSO MAY NOT
  REPORT WEATHER SUCH AS PRECIPITATION OR FOG.

ILZ001-002-007-009-015-016-024-290800-
NORTHWEST ILLINOIS

CITY           SKY/WX    TMP DP  RH WIND       PRES   REMARKS
MOLINE         MOCLDY    42  38  85 E10       30.17R
STERLING*      CLOUDY    41  39  93 E9        30.20R
SAVANNA*       MOCLDY    38  36  92 E7        30.21R WCI  33
$$

ILZ003-004-008-010-011-017-018-290800-
NORTH CENTRAL ILLINOIS

CITY           SKY/WX    TMP DP  RH WIND       PRES   REMARKS
ROCKFORD       PTCLDY    39  35  86 NE7       30.22F WCI  34
FREEPORT*      CLOUDY    37  36  93 E7        30.22S WCI  32
ROCHELLE*      MOCLDY    39  38  93 E7        30.20F WCI  34
DE KALB*       CLEAR     38  36  94 E12       30.20F WCI  30
PERU*          CLOUDY    42  39  86 E10       30.19R
$$

ILZ005-006-012>014-019>023-290800-
NORTHEAST ILLINOIS

CITY           SKY/WX    TMP DP  RH WIND       PRES   REMARKS
CHICAGO-OHARE  FOG       36  35  96 NE7       30.22F VSB 1   WCI  30
CHICAGO-MIDWAY CLOUDY    37  36  96 NE8       30.22F FOG     WCI  31
AURORA         MOCLDY    39  36  89 NE15      30.20F FOG     WCI  31
LANSING*       FOG       35  35 100 NE8       30.22F VSB 3/4 WCI  29
JOLIET*        CLOUDY    40  39  95 NE13      30.20F
WAUKEGAN       FOG       33  33 100 CALM      30.22F VSB 1/4
DUPAGE AIRPORT CLOUDY    36  36 100 E9        30.21F FOG     WCI  29
WHEELING       FOG       34  34 100 NE5       30.24F VSB 3/4 WCI  30
MORRIS*        CLOUDY    42  39  86 NE7       30.18S
NORTHERLY ISL    N/A     34  34 100 N8          N/A  WCI  27
$$

LMZ740>746-290800-
SOUTHERN LAKE MICHIGAN

STATION/POSITION SKY/WX   TEMP    WIND        PRES    VSBY  WAVE
                          AIR SEA DIR/SP/G                  HT/PER
                          (F)     (DEG/KT/KT) (MB)    (MI)  (FT/S)
HARRISON CRIB              35     360/  8/  8   N/A
BURNHAM HARBOR             34      20/  8/  9   N/A
CALUMET HARBOR             34      20/  7/  9 1023.2F
BURNS HARBOR               35      60/ 10/ 14 1024.0R
MICHIGAN CITY              35      40/  9/ 11   N/A
$$

ILZ025>027-034>036-040-047-049-050-058-095>099-290800-
WEST-CENTRAL ILLINOIS

CITY           SKY/WX    TMP DP  RH WIND       PRES   REMARKS
QUINCY         CLOUDY    48  44  86 E12       30.10F
GALESBURG*     CLOUDY    41  40  93 E9        30.15R
MACOMB*        PTCLDY    41  40  95 E3        30.17R
JACKSONVILLE*  CLOUDY    46  42  85 E8        30.15R
PITTSFIELD*    CLOUDY    49  45  88 NE10      30.12F
$$

ILZ028>032-037-038-041>044-048-051>054-059>061-290800-
CENTRAL ILLINOIS

CITY           SKY/WX    TMP DP  RH WIND       PRES   REMARKS
PONTIAC        CLOUDY    43  43  99 E9        30.18S
BLOOMINGTON    CLOUDY    41  40  96 E10       30.15F
DECATUR        CLOUDY    44  39  82 E12       30.13S
PEORIA         CLOUDY    42  39  89 NE15      30.16R
SPRINGFIELD    CLOUDY    45  40  82 E13       30.14R
TAYLORVILLE    NOT AVBL
$$

ILZ033-039-045-046-055>057-062-063-290800-
EAST-CENTRAL ILLINOIS

CITY           SKY/WX    TMP DP  RH WIND       PRES   REMARKS
CHAMPAIGN      CLOUDY    45  40  82 NE10      30.14S
RANTOUL*       CLOUDY    45  43  93 NE12      30.15S FOG
MATTOON        CLEAR     41  41 100 NE5       30.11F
PARIS*         CLOUDY    46  44  90 NE7       30.14R
$$

ILZ079-100>102-290800-
SOUTHWEST ILLINOIS

CITY           SKY/WX    TMP DP  RH WIND       PRES   REMARKS
BELLEVILLE     CLOUDY    52  49  91 NE8       30.08S
CAHOKIA*       CLOUDY    54  46  74 NE7       30.09S
SPARTA*        CLOUDY    52  47  83 NE6       30.08S
$$

ILZ064>066-069>071-074>076-080>082-084>086-088>090-092>094-290800-
SOUTH-CENTRAL ILLINOIS

CITY           SKY/WX    TMP DP  RH WIND       PRES   REMARKS
CARBONDALE     CLEAR     51  49  92 NE7       30.06R
CAIRO*         CLEAR     50  49  93 NE3       30.04F
EFFINGHAM*     CLEAR     46  43  90 N3        30.13R
MARION         CLEAR     50  50 100 NE5       30.07R
MT. VERNON     PTCLDY    50  46  86 NE8       30.09R
CENTRALIA*     CLEAR     50  46  87 NE6       30.09R
SALEM*         CLEAR     49  45  84 NE3       30.10S
$$

ILZ067-068-072-073-078-083-087-091-290800-
SOUTHEAST ILLINOIS

CITY           SKY/WX    TMP DP  RH WIND       PRES   REMARKS
LAWRENCEVILLE  CLEAR     49  46  90 NE9       30.11S
FLORA*         CLEAR     49  45  86 NE7       30.11R
FAIRFIELD*     CLEAR     49  47  92 NE6       30.09R
HARRISBURG*    CLOUDY    53  50  91 CALM      30.07R
ROBINSON*      CLEAR     48  44  85 E8        30.12S
CARMI*         CLOUDY    52  50  93 NE7       30.07S
$$

ABBREVIATIONS USED IN REMARKS
   TC - TEMPERATURE IN CELSIUS
  WCI - WIND CHILL INDEX
   HX - HEAT INDEX
  VSB - VISIBILITY
$$





USA.gov is the U.S. government's official web portal to all federal, state and local government web resources and services.